SCP
0 0 0 0 0 0 0 0 0 0 0 0 0 0 0 0 0 0 0 1 1 2 2 2 2 2 2 2 2 1 1 1 1 1 1 1 1 1 1 1 1 0 0 0 1 1 1 1 1
0 0 0 0 0 0 0 0 0 0 0 0 0 0 0 0 0 1 1 1 1 2 2 2 2 2 2 2 2 1 1 1 1 2 1 1 1 1 1 1 1 1 1 1 1 1 1 1 1
0 0 0 0 0 0 0 0 0 0 0 0 0 0 0 1 1 1 1 1 1 2 3 3 2 2 2 2 1 1 1 1 2 2 2 1 1 1 1 1 1 1 1 1 1 1 1 1 1
0 0 0 0 0 0 0 0 0 0 0 0 0 0 0 1 1 1 1 1 2 3 3 3 3 2 2 2 1 1 1 1 2 2 2 1 1 1 1 1 1 1 1 1 1 1 1 1 1
0 0 0 0 0 0 0 0 0 0 0 0 0 0 1 1 1 2 1 2 2 4 4 4 3 2 2 2 1 1 1 1 1 2 1 1 1 1 1 1 1 1 1 1 1 1 1 1 1
0 0 0 0 0 0 0 0 0 0 0 0 0 0 1 1 1 1 2 2 3 4 5 4 3 2 2 2 1 1 1 1 1 1 1 1 1 1 1 1 1 1 1 1 1 1 1 1 1
0 0 0 0 0 0 0 0 0 0 0 0 0 0 1 1 1 1 2 3 4 5 5 4 3 2 2 2 1 1 1 1 1 1 1 1 1 1 2 1 1 1 1 1 1 1 1 1 1
0 0 0 0 0 0 0 0 0 0 0 0 0 0 1 1 1 2 2 3 4 5 5 4 3 2 2 2 1 1 1 1 1 1 1 1 1 1 1 1 1 1 1 1 1 1 1 1 1
0 0 0 0 0 0 0 0 0 0 0 0 1 1 1 1 2 2 3 3 4 5 5 5 3 2 2 2 1 1 1 1 1 1 1 1 1 1 1 1 1 1 1 1 1 1 1 1 1
0 0 0 0 0 0 0 0 0 0 0 0 1 1 1 2 2 2 2 3 4 5 5 4 3 2 2 2 2 1 1 1 1 1 1 1 1 1 1 1 1 1 1 1 1 1 1 1 1
0 0 0 0 0 0 0 0 0 0 0 0 1 1 2 2 2 2 2 3 3 4 5 4 3 2 2 2 2 2 2 1 1 1 1 1 1 1 1 1 1 1 1 1 1 1 1 1 1
0 0 0 0 0 0 0 0 0 0 0 0 0 1 1 2 2 2 2 3 3 4 4 4 3 2 2 2 3 3 2 2 2 2 2 2 2 1 1 1 1 1 1 1 1 1 1 1 1
0 0 0 0 0 0 0 0 0 0 0 0 0 1 1 1 2 2 3 3 3 4 4 3 3 2 2 2 3 3 3 2 2 2 2 2 2 2 2 1 1 1 1 1 1 1 1 1 1
0 0 0 0 0 0 0 0 0 0 0 0 1 1 1 1 2 2 3 3 3 3 3 2 2 2 1 2 2 3 3 3 3 2 2 2 2 2 2 1 1 1 1 1 1 1 1 1 1
0 0 0 0 0 0 0 0 0 0 0 0 1 1 2 2 2 2 3 3 3 3 3 2 2 1 1 1 2 2 3 3 3 3 2 2 2 2 2 2 1 1 1 1 1 1 1 1 1
0 0 0 0 0 0 0 0 0 0 0 0 1 2 2 2 2 2 3 3 3 3 2 2 1 1 1 1 1 2 3 3 3 3 2 2 2 2 2 2 1 1 1 1 1 1 1 1 1
0 0 0 0 0 0 0 0 0 0 0 1 1 2 2 2 2 2 3 3 3 3 3 2 2 1 1 1 1 2 3 3 3 3 3 2 2 2 2 2 1 1 1 1 1 1 1 1 1
0 0 0 0 0 0 0 0 0 0 0 1 2 2 2 2 2 2 2 3 3 3 2 2 2 1 1 2 1 2 2 3 3 3 3 2 2 2 2 1 1 1 1 1 1 1 1 1 1
0 0 0 0 0 0 0 0 0 0 0 1 2 2 2 2 2 2 2 3 3 3 2 2 1 1 1 2 2 1 2 3 3 3 3 2 2 1 1 1 1 1 1 1 1 1 1 1 1
0 0 0 0 0 0 0 0 0 0 0 0 1 1 1 2 2 2 2 2 2 2 2 2 1 1 1 1 2 1 1 2 3 3 3 2 2 1 1 1 0 0 1 1 1 1 1 1 1
0 0 0 0 0 0 0 0 0 0 0 0 0 0 0 1 1 1 2 2 2 2 2 2 1 1 1 1 1 1 1 2 2 3 3 2 2 1 1 1 0 0 0 1 1 1 1 1 1
0 0 0 0 0 0 0 0 0 0 0 0 0 0 0 1 1 1 1 1 2 2 2 2 1 1 1 1 1 1 1 1 2 3 3 2 2 1 1 1 0 0 0 0 0 0 1 1 1
0 0 0 0 0 0 0 0 0 0 0 0 0 0 0 1 1 1 1 1 2 2 2 2 1 1 1 1 1 1 1 1 1 2 2 2 2 2 1 1 1 0 0 0 0 0 0 1 1
0 0 0 0 0 0 0 0 0 0 0 0 0 0 0 1 1 1 1 1 2 2 2 2 2 1 1 1 1 1 1 0 1 1 2 2 2 1 1 1 1 1 0 0 0 0 0 0 1
0 0 0 0 0 0 0 0 0 0 0 0 0 0 1 1 1 1 1 1 2 2 2 2 2 1 1 1 1 1 0 0 0 1 2 2 2 1 1 1 1 1 0 0 0 0 0 0 0
0 0 0 0 0 0 0 0 0 0 0 0 0 0 1 1 0 0 1 1 1 2 2 2 2 1 1 0 0 0 0 0 0 0 1 2 2 1 1 1 1 0 0 0 0 0 0 0 0
0 0 0 0 0 0 0 0 0 0 0 0 0 0 1 0 0 0 1 1 1 2 2 2 1 1 1 0 0 0 0 0 0 0 0 1 2 1 1 1 0 0 0 0 0 0 0 0 0
0 0 0 0 0 0 0 0 0 0 0 0 0 0 1 0 0 0 0 1 1 2 2 1 1 1 0 0 0 0 0 0 0 0 0 1 1 1 1 1 1 0 0 0 0 0 0 0 0
0 0 0 0 0 0 0 0 0 0 0 0 0 0 0 0 0 0 0 0 1 1 1 1 1 1 0 0 0 0 0 0 0 0 0 0 1 1 1 1 1 0 0 0 0 0 0 0 0
0 0 0 0 0 0 0 0 0 0 0 0 0 0 0 0 0 0 0 0 0 1 1 1 1 0 0 0 0 0 0 0 0 0 0 0 0 1 1 1 1 0 0 0 0 0 0 0 0
Wind_Speed
6 3 3 3 4 3 5 4 3 3 3 2 2 1 2 2 2 4 5 4 3 1 2 2 6 7 8 9 9 9 9 8 8 8 8 8 8 7 8 8 8 8 9 9 10 11 11 11 11
4 2 2 3 6 7 5 5 5 2 3 3 2 1 2 3 5 5 3 3 2 2 2 3 6 8 8 8 9 9 9 8 8 8 8 8 8 8 7 8 8 8 8 9 9 10 10 10 10
2 2 1 2 4 6 5 4 4 4 3 2 3 2 2 3 4 3 4 2 2 3 3 4 7 8 8 9 8 8 8 9 9 9 8 8 8 8 8 7 7 8 8 8 8 9 10 9 10
2 2 1 3 6 5 2 2 3 5 4 2 3 4 4 5 4 4 3 2 3 3 3 5 7 8 8 9 9 9 8 9 9 9 8 8 8 8 7 7 7 7 7 7 7 8 9 9 9
1 2 4 4 6 4 2 1 3 4 3 3 3 4 5 4 5 4 3 3 4 4 4 5 7 8 8 8 9 9 9 8 8 9 9 8 7 7 7 7 7 7 7 6 6 7 8 8 8
1 2 5 7 7 5 3 1 2 3 3 3 2 3 5 4 5 4 4 3 4 5 5 5 7 8 8 9 9 9 9 9 8 8 9 9 8 7 6 6 6 6 5 6 7 7 7 8 7
1 2 4 5 6 6 3 0 2 2 3 2 1 3 5 4 4 3 3 4 5 5 4 5 4 5 7 9 9 9 9 9 9 9 9 9 8 7 6 6 6 5 5 5 6 6 6 6 6
1 2 4 6 7 5 2 1 1 1 1 1 1 2 3 2 2 2 3 5 5 5 4 4 4 4 4 5 8 9 9 9 9 10 10 9 8 7 6 5 5 5 5 4 5 5 6 5 5
2 3 5 5 5 4 3 2 1 2 2 1 2 2 3 3 2 3 4 5 5 6 5 4 4 4 4 4 5 6 7 8 8 7 9 6 3 3 3 5 5 5 5 4 4 4 5 5 5
1 3 2 1 1 3 3 1 1 2 2 2 2 2 3 3 3 4 4 4 4 5 5 5 4 4 4 3 3 3 3 4 4 4 4 3 3 3 3 5 5 5 4 3 3 4 4 2 3
2 1 1 1 1 2 3 2 1 3 3 3 2 1 3 4 3 3 3 3 3 3 4 5 5 4 4 2 2 2 2 2 2 3 3 3 2 2 2 2 2 2 2 1 1 2 1 1 1
3 2 2 1 1 1 2 3 2 3 2 1 0 1 2 3 3 2 2 2 2 3 4 5 4 4 3 3 2 2 2 2 2 2 3 2 2 2 2 1 2 1 1 1 1 1 1 1 2
2 2 2 2 2 1 1 2 3 3 2 1 0 1 1 2 2 2 1 2 2 3 4 4 5 4 4 2 2 2 2 2 2 1 2 2 2 1 2 1 2 2 1 1 1 1 1 2 2
3 4 2 1 0 1 1 3 4 4 3 3 2 2 2 2 2 1 1 2 2 2 3 4 4 5 4 3 2 1 1 1 1 1 2 2 2 2 2 2 2 2 2 2 2 2 2 2 2
3 2 1 1 2 2 3 5 6 5 5 5 4 3 3 2 2 1 1 1 1 2 2 3 3 4 4 3 3 1 1 1 1 2 2 2 2 2 2 2 2 2 3 3 2 2 2 2 2
2 3 3 0 2 2 6 8 3 5 6 7 5 4 4 3 3 2 1 0 1 1 2 3 3 4 4 4 3 1 1 1 1 1 2 2 3 3 2 2 2 2 3 3 2 2 2 2 2
2 3 4 2 1 3 6 8 3 5 7 7 6 5 4 4 3 2 1 0 0 1 2 2 3 3 4 4 3 2 1 1 1 1 2 3 3 3 3 2 2 3 3 3 3 3 2 2 3
2 4 4 4 2 4 7 8 5 5 7 7 7 5 5 4 4 2 1 1 1 1 1 2 2 3 4 3 2 2 1 1 1 1 2 3 3 3 3 3 3 3 3 3 3 3 3 3 3
2 4 6 5 3 5 8 9 7 6 7 7 6 5 4 4 4 3 2 1 1 1 1 2 3 3 3 2 2 2 2 2 2 2 2 3 3 4 3 3 3 3 3 4 4 3 3 2 2
3 5 5 4 3 6 7 10 7 5 6 6 6 4 4 4 3 3 2 2 1 0 1 1 2 2 3 2 2 2 3 2 2 2 2 3 3 4 4 4 3 4 3 4 4 4 3 2 2
4 6 6 6 6 4 7 7 4 3 4 4 5 4 4 4 4 3 3 2 2 1 1 1 2 2 3 3 2 2 2 2 2 2 2 3 4 4 4 5 4 4 4 4 4 4 5 4 4
4 4 6 7 6 4 3 6 3 3 4 4 4 4 4 3 3 3 3 2 2 2 2 2 2 2 3 3 3 3 3 3 4 3 3 4 4 4 4 5 5 5 4 4 4 5 5 5 5
3 4 5 5 5 6 4 6 3 2 4 4 4 4 4 3 3 4 4 3 2 2 2 2 2 2 2 3 3 4 4 4 4 4 4 4 4 4 4 5 5 5 5 5 5 5 6 5 6
2 3 3 3 4 6 4 6 4 3 4 4 4 4 4 3 3 4 3 2 2 2 2 2 3 3 3 3 4 4 5 5 5 5 5 4 3 3 4 5 5 5 5 6 6 5 7 6 7
2 3 3 3 4 4 1 6 5 1 3 4 5 4 4 3 3 4 3 2 2 2 2 3 3 4 4 4 4 5 5 5 6 6 5 5 4 4 5 5 5 5 5 6 6 6 6 7 7
3 3 3 5 5 3 4 7 3 1 2 4 4 4 3 3 3 4 3 3 3 3 3 3 3 4 4 4 5 5 5 4 4 5 5 5 4 5 5 6 6 6 6 6 6 6 6 6 7
3 3 2 3 3 6 5 5 6 4 3 3 3 3 3 3 4 4 4 3 3 3 4 4 4 4 4 5 5 5 5 5 5 5 5 4 5 5 6 6 6 6 6 6 6 6 6 6 6
2 2 3 4 5 6 5 6 4 5 5 4 4 4 4 4 4 4 3 4 4 4 4 4 4 4 5 5 5 5 6 6 6 5 6 5 5 6 6 6 6 6 6 6 6 6 6 6 6
4 4 4 3 4 5 6 4 1 4 4 4 5 4 4 4 4 4 4 4 4 4 4 4 4 4 5 5 5 6 6 5 5 5 6 6 5 6 6 6 6 6 6 6 6 7 6 6 7
4 5 6 5 5 5 6 5 2 2 1 3 4 4 4 4 4 4 4 4 4 4 4 4 4 5 5 5 6 6 6 5 6 6 6 6 6 6 7 7 6 6 6 7 7 7 6 6 7
Wind_Direction
334 320 272 235 206 207 218 197 189 155 144 103 69 84 91 60 17 65 42 30 17 39 30 22 26 35 40 42 44 47 52 54 56 60 66 69 70 76 81 84 87 90 89 88 89 87 85 84 85
332 304 239 225 225 212 203 194 183 150 119 131 120 116 111 88 36 41 28 17 23 67 44 43 38 40 44 47 46 49 52 53 55 58 58 63 68 70 75 81 86 89 87 86 86 85 85 85 85
326 317 240 199 222 228 189 159 160 128 119 155 133 73 53 51 34 21 6 6 61 76 52 51 44 45 47 48 47 51 53 53 54 56 56 57 64 66 68 75 80 83 85 85 88 87 86 86 86
260 177 176 217 210 229 226 133 151 160 140 114 148 117 96 44 15 11 17 59 89 76 59 58 43 47 45 46 49 49 52 55 56 55 55 56 58 63 64 65 71 78 84 88 91 91 90 86 88
269 212 194 206 217 209 198 149 183 191 166 136 162 136 112 65 29 39 53 68 74 67 52 58 43 46 45 46 51 49 49 53 57 56 56 55 55 58 62 60 67 75 82 85 92 97 95 90 88
182 214 216 213 206 196 183 177 207 196 173 159 165 152 114 67 39 47 60 67 70 65 56 57 45 42 44 46 47 46 48 48 52 55 55 52 49 52 58 60 64 69 79 83 88 95 98 96 93
228 212 228 213 204 201 179 101 235 206 181 165 225 172 129 66 34 54 74 71 71 70 62 55 53 50 44 40 40 41 42 43 45 48 47 44 43 42 48 54 59 61 70 80 81 89 97 98 99
343 181 196 206 206 199 163 145 16 299 165 63 263 184 132 61 36 64 83 69 59 58 55 52 52 50 44 49 40 39 40 41 45 45 37 35 37 36 35 44 47 53 59 71 82 83 93 93 99
262 216 211 207 207 179 162 180 60 12 117 97 70 26 52 95 91 77 70 61 48 42 35 36 42 45 39 47 46 45 46 42 44 49 36 29 44 47 38 37 32 41 47 60 83 86 95 96 100
302 219 213 272 245 156 155 194 185 179 171 177 141 62 84 112 106 80 63 58 42 28 25 22 27 32 37 44 56 55 57 52 42 43 37 25 20 26 27 29 24 35 37 54 81 89 114 144 137
59 90 119 78 71 144 172 172 224 216 219 207 185 115 121 127 112 89 67 57 49 34 27 22 19 24 33 32 45 39 39 43 40 39 25 17 20 21 28 27 28 43 38 76 106 160 150 156 148
108 73 71 71 51 212 206 188 194 257 254 1 54 120 141 140 131 108 73 38 33 36 26 20 17 17 24 26 33 44 31 27 27 26 23 13 10 6 358 356 350 336 346 321 253 254 183 196 191
133 122 82 67 74 83 160 219 223 240 233 203 177 151 159 169 158 135 92 47 33 34 22 16 12 14 12 21 25 37 29 17 10 15 13 3 359 356 346 327 334 329 318 304 290 254 242 230 214
114 120 113 47 268 247 217 247 235 227 204 200 207 205 209 201 189 151 79 32 19 28 18 11 13 11 9 8 13 19 16 6 357 359 2 359 349 336 328 319 316 315 303 292 278 267 253 244 236
132 138 149 306 265 241 249 243 230 212 209 216 222 226 232 223 205 179 135 12 354 22 19 14 9 7 3 3 360 1 356 353 349 345 343 349 344 327 318 306 303 305 305 285 269 257 249 243 240
191 212 224 190 268 247 253 250 206 207 215 226 228 228 233 226 215 201 182 322 325 39 22 11 6 358 358 357 348 341 345 358 349 344 341 338 332 322 308 300 302 302 290 274 264 252 250 239 238
194 236 253 249 258 255 248 257 239 222 222 227 228 225 232 227 216 210 219 240 201 67 26 3 1 358 357 354 344 330 346 356 349 344 342 335 326 317 307 296 301 291 281 270 264 253 251 252 246
227 249 252 258 268 263 254 257 255 236 227 230 228 225 232 230 219 217 236 216 145 95 43 5 359 0 356 354 338 338 345 347 336 332 339 331 319 314 310 296 292 288 274 266 263 268 257 252 257
258 257 266 279 295 274 263 268 266 242 233 230 224 225 234 234 224 218 210 198 152 87 27 2 359 360 355 348 334 320 308 305 304 311 319 315 318 312 300 295 288 282 268 267 269 265 258 250 252
241 254 268 274 286 284 280 277 272 247 231 231 232 236 253 242 225 226 225 208 214 246 333 336 349 347 342 333 319 288 294 285 285 293 295 301 311 311 303 297 291 281 276 261 260 261 260 258 234
250 258 270 283 295 261 280 261 230 222 223 226 239 248 260 248 242 233 235 234 238 253 288 300 317 320 328 327 318 316 302 293 288 292 292 298 301 299 298 294 290 282 278 265 259 255 253 255 241
257 264 271 273 275 265 285 275 221 223 224 226 236 248 261 254 255 258 249 251 260 277 273 281 292 305 317 315 311 306 298 299 296 287 283 288 288 291 292 292 288 281 273 269 259 255 259 255 246
276 297 270 261 256 260 243 260 242 199 222 234 242 249 256 259 266 269 262 255 268 290 282 275 285 292 306 301 299 293 292 297 298 291 282 283 282 285 289 287 284 280 276 271 262 255 254 254 251
261 260 234 225 236 246 238 250 253 197 233 246 248 257 262 273 280 274 272 273 274 291 290 280 282 290 295 291 291 291 293 298 299 290 286 285 284 284 287 288 286 283 280 274 269 260 251 253 255
248 255 250 232 232 248 196 248 259 228 249 256 257 262 263 270 278 283 284 285 291 290 293 286 285 293 298 294 287 285 289 291 290 293 283 287 283 286 288 291 286 281 280 278 273 263 256 252 253
215 253 266 274 275 276 224 247 266 221 253 257 258 263 266 274 282 284 283 287 289 296 295 291 289 292 301 299 293 285 282 283 286 293 292 284 284 286 287 285 283 283 284 281 277 265 256 252 250
205 208 290 274 273 266 248 260 258 204 221 235 251 262 271 277 283 286 290 287 287 293 296 290 288 291 295 294 290 287 285 281 285 287 287 282 286 292 288 283 282 284 283 279 278 270 265 259 254
309 173 193 223 261 267 263 253 236 202 215 222 242 262 273 282 285 292 296 288 287 291 294 292 288 287 291 294 293 291 287 286 286 285 286 288 288 289 288 286 283 283 281 277 273 272 267 266 264
179 197 222 225 260 263 270 258 158 201 208 228 252 265 274 282 288 290 293 292 295 295 296 300 294 293 295 295 292 289 289 290 288 285 286 289 290 291 288 286 285 283 282 280 274 271 266 263 265
225 219 207 231 231 237 264 274 98 202 224 246 264 270 274 281 286 289 292 293 297 299 301 302 298 293 292 292 289 288 292 293 290 290 291 291 289 289 288 285 283 284 282 280 274 272 269 263 262